www.pogodaiklimat.ru

Погода и климат >> Архив погоды >> Китай >> Внутренняя Монголия >> Гуайцзыху


ПОГОДА в Гуайцзыху

  • Прогноз погоды в Гуайцзыху
  • Монитор погоды в Гуайцзыху

АРХИВ ПОГОДЫ в Гуайцзыху

Время (UTC), дата Ветер
(напр.,м/с)
 
Видим.   Явления Облачность Т
(С)
Тd
(С)
f
(%)
Тe
(С)
Тes
(С)
Комфортность P
(гПа)
Po
(гПа)
Тmin
(С)
Tmax
(С)
R
(мм)
R24
(мм)
S
(см)
00 16.04 Ю 10 6000 м ясно +16.0 -15.6 10 +14 +14 1003.2 895.6
03 16.04 З 10 4300 м пыльный позёмок 3/3
[]
+24.6 -15.4 6 +21 +22 комфорт 1001.4 896.9
06 16.04 З 11
{17}
4500 м пыльный позёмок 8/8
[]
+28.8 -12.3 6 +25 +25 комфорт 997.6 894.9 +12.2
09 16.04 З 9
{17}
н/о пыльный позёмок 9/9
[]
+30.3 -16.2 4 +26 +26 жарко 994.5 892.6
12 16.04 З 2 26 км 8/8
[]
+25.9 -16.6 5 +22 +22 комфорт 994.5 891.2
18 16.04 З 5 30 км ?/? +19.2 -13.2 10 +19 +19 995.6 889.9 +30.5
21 16.04 З 5 27 км н/о +18.4 -8.7 15 +18 +18 995.9 889.9
00 17.04 З 6 25 км 3/3
[]
+17.5 -7.1 18 +17 +17 1000.1 893.3
03 17.04 З 3 25 км 9/9
[]
+22.0 -2.7 19 +21 +22 комфорт 1001.5 896.1
06 17.04 З 2 5000 м пыльный позёмок 10/10
[]
+26.7 -4.0 13 +24 +24 комфорт 998.6 895.1 +15.2
09 17.04 С 5 21 км 9/9
[]
+28.9 -5.7 10 +25 +26 комфорт 996.4 893.8
12 17.04 С 2 15 км 6/6
[]
+24.5 -6.7 12 +22 +22 комфорт 997.5 893.4
18 17.04 В 16
{22}
500 м морось ?/? +17.7 -4.9 21 +16 +16 1000.3 893.6 +29.6
21 17.04 В 10
{22}
4100 м пыльный позёмок ?/? +15.1 -5.9 23 +13 +13 1001.4 893.7
00 18.04 В 11
{20}
н/о пыльный позёмок 9/9
[]
+14.5 -8.2 20 +12 +12 1004.1 895.9
03 18.04 В 9 9000 м 9/9
[]
+18.3 -8.8 15 +17 +17 1004.4 897.5
06 18.04 В 5 12 км 9/9
[]
+23.0 -7.9 12 +21 +22 комфорт 1003.2 898.0 +14.2
09 18.04 СВ 2 12 км 9/9
[]
+24.7 -6.6 12 +22 +23 комфорт 1002.0 897.5
12 18.04 В 3 11 км 9/9
[]
+21.9 -6.8 14 +20 +20 1003.1 897.5
18 18.04 В 2 20 км ?/? +15.2 -9.0 18 +15 +15 1004.3 896.3 +25.1
21 18.04 В 3 23 км н/о +13.6 -8.9 20 +13 +13 1004.7 896.1
00 19.04 З 1 26 км 10/10
[]
+13.3 -8.6 21 +14 +14 1006.7 897.8
03 19.04 З 8 17 км 9/9
[]
+21.0 -11.8 10 +20 +20 1008.1 901.7
06 19.04 З 9 6000 м пыльный позёмок 9/9
[]
+24.1 -12.2 8 +21 +22 комфорт 1007.4 902.1 +11.5
09 19.04 З 9 8000 м 10/10
[]
+23.1 -13.0 8 +20 +20 1007.5 901.9
12 19.04 З 8 28 км 10/10
[]
+22.2 -8.5 12 +20 +20 1008.2 902.2
18 19.04 З 7 22 км ?/? +16.9 -1.7 28 +16 +16 1009.3 901.4 +25.0
21 19.04 З 7 30 км н/о +15.8 -3.1 27 +14 +14 1010.3 901.9
00 20.04 В 4 23 км 3/3
[]
+14.5 -3.3 29 +14 +15 1013.0 903.8
03 20.04 Ю 3 1100 м пыльный позёмок 6/6
[]
+19.7 -5.3 18 +20 +24 1011.8 904.6
06 20.04 З 2 10 км 3/3
[]
+24.9 -4.4 14 +23 +34 комфорт 1008.8 903.6 +13.8
09 20.04 З 6 30 км 3/3
[]
+27.2 -8.4 9 +24 +26 комфорт 1005.1 901.1
12 20.04 З 5 30 км 3/3
[]
+24.9 -7.6 11 +22 +22 комфорт 1005.7 900.9
18 20.04 Ю 7 30 км ?/? +17.2 -8.1 17 +16 +16 1004.7 899.4 +27.6
21 20.04 Ю 7 30 км н/о +16.5 -7.9 18 +15 +15 1003.9 896.4
00 21.04 З 2 30 км ясно +18.3 -7.2 17 +19 +21 1005.1 898.1
03 21.04 З 6 21 км ясно +27.2 -8.4 9 +24 +29 комфорт 1004.1 900.2
06 21.04 Ю 3 29 км ясно +29.4 -10.0 7 +25 +39 комфорт 1001.8 898.8 +14.9
09 21.04 З 3 30 км 1/1
[]
+30.3 -11.3 6 +26 +31 жарко 999.1 896.7
12 21.04 З 2 26 км 3/3
[]
+26.1 -10.7 8 +23 +23 комфорт 999.5 895.7
18 21.04 З 3 30 км ?/? +18.8 -10.2 13 +19 +19 999.6 893.4 +30.8
21 21.04 Ю 3 30 км н/о +13.6 -10.3 18 +13 +13 999.8 891.7
00 22.04 З 4 19 км 3/3
[]
+17.6 -5.6 20 +17 +18 1001.8 894.9
03 22.04 СЗ 4 21 км 3/3
[]
+25.4 -1.4 17 +24 +30 комфорт 1002.6 898.3
06 22.04 З 4 21 км 5/5
[]
+29.6 -4.0 11 +26 +26 жарко 1000.4 897.7 +11.8
09 22.04 З 9 16 км 8/8
[]
+30.4 -7.5 8 +26 +27 жарко 1000.0 897.6
12 22.04 З 4 14 км 9/9
[]
+26.0 -6.7 11 +23 +23 комфорт 1000.9 896.9
18 22.04 Ю 3 22 км ?/? +16.3 -3.2 26 +16 +16 1001.3 894.0 +31.7
21 22.04 Ю 5 19 км н/о +15.0 -2.9 29 +14 +14 1000.8 893.1

 

Местоположение метеостанции Гуайцзыху (Внутренняя Монголия, Китай): широта 41.37 долгота 102.36 высота над уровнем моря 960 м.

В архиве по умолчанию представлена погода в Гуайцзыху за последнюю неделю. Архивные данные за месяц целиком и за предыдущие месяцы, начиная с января 2011 года, Вы можете получить, выбрав интересующий диапазон дат из раскрывающегося списка и нажав кнопку "Ввод!".


*Определитесь, кто Вы:
робот инопланетянин человек

Внимание! Время в таблицах - всемирное. Для получения местного времени необходимо прибавить поправку, которая равна 8 ч.

Смотрите также архив погоды в соседних городах и на ближайших метеорологических станциях:

Погода в Эдзин-Ци (Внутренняя Монголия, Китай) (126 км)
Погода в Баян Мод (Внутренняя Монголия, Китай) (192 км)
Погода в Шинэ Уса (Монголия) (246 км)
Погода в Даланзадгаде (Монголия) (298 км)
Погода в Миньцине (Цинхай, Китай) (311 км)
Погода в Чжанъе (Цинхай, Китай) (317 км)
Погода в Баинвендурьере (Внутренняя Монголия, Китай) (335 км)
Погода в Джартае (Внутренняя Монголия, Китай) (337 км)
Погода в Богде (Монголия) (365 км)
Погода в Цзюцюан (Ганьсу, Китай) (373 км)

Пояснения к столбцам:

Ветер - указаны скорость ветра в м/с - средняя за 10 мин, порывы в срок и между сроками (в фигурных скобках) и направление, откуда дует ветер: С - северный, СВ - северо-восточный, В - восточный, ЮВ - юго-восточный, Ю - южный, ЮЗ - юго-западный, З - западный, СЗ - северо-западный.
Видимость - горизонтальная дальность видимости в метрах или километрах. При видимости от 1 до 10 км при отсутствии осадков обычно наблюдается дымка, при ухудшении видимости до 1 км и менее - туман. В сухую погоду видимость может ухудшаться дымом, пылью или мглою.
Явления - указаны атмосферные явления, наблюдавшиеся в срок или в последний час перед сроком; фигурными скобками обозначены явления, наблюдавшиеся между сроками (за 1-3 часа до срока); квадратными скобками обозначены град или гололедные отложения с указанием их диаметра в мм.
Облачность - указаны через наклонную черту общая и нижняя облачность в баллах и высота нижней границы облаков в метрах; квадратными скобками обозначены формы облаков: Ci - перистые, Cs - перисто-слоистые, Cc - перисто-кучевые, Ac - высококучевые, As - высокослоистые, Sc - слоисто-кучевые, Ns - слоисто-дождевые, Cu - кучевые, Cb - кучево-дождевые. Подробнее классификацию облаков см. в Атласе облаков (PDF).
T - Температура воздуха - температура, измеренная на высоте 2 м над землей.
Td - Температура точки росы - температура, при понижении до которой содержащийся в воздухе водяной пар достигнет насыщения.
f - Относительная влажность воздуха - влажноcть воздуха, измеренная на высоте 2 м над землей.
Te - Эффективная температура - температура, которую ощущает одетый по сезону человек в тени. Характеристика душности погоды. При расчете учитывается влияние влажности воздуха и скорости ветра на теплоощущения человека.
Tes - Эффективная температура на солнце - температура, которую ощущает человек, с поправкой на солнечный нагрев. Характеристика знойности погоды. Зависит от высоты солнца над горизонтом, облачности и скорости ветра. Ночью, в пасмурную погоду, а также при ветре 12 м/с и более поправка равна нулю.
P - Атмосферное давление - приведенное к уровню моря атмосферное давление.
Po - Атмосферное давление - измеренное на уровне метеостанции атмосферное давление.
Tmin - Минимальная температура - минимум температуры воздуха на высоте 2 м над землей.
Tmax - Максимальная температура - максимум температуры воздуха на высоте 2 м над землей.
R - Количество осадков - Количество выпавших осадков за период времени, мм. При наведении курсора мыши на число - период времени, за который выпало указанное количество осадков.
R24 - Количество осадков - Количество выпавших осадков за 24 часа, мм.
S - Снежный покров - Высота снежного покрова, см. При наведении курсора мыши на число - состояние снежного покрова и степень покрытия местности в баллах.